User: anonymous   Login
Location: Charleston
(38.3500°N, 81.6330°W)
Time: 15:00:03
(UTC-05:00)
Language:

Cosmos 1812 Rocket - Orbit

View from above orbital plane
View from above orbital plane
View from above satellite
View from above satellite

Ground track
Ground track

The orbit data is extracted from the following two-line orbital elements,

1 17296U 87003B   17060.28487995  .00000110  00000-0  10539-4 0  9993
2 17296  82.5300 125.7719 0018239 212.5623 147.4469 14.83170450627127
Epoch (UTC): 01 March 2017 06:50:13
Eccentricity: 0.0018239
inclination: 82.5300°
perigee height: 606 km
apogee height: 632 km
right ascension of ascending node: 125.7719°
argument of perigee: 212.5623°
revolutions per day: 14.83170450
mean anomaly at epoch: 147.4469°
orbit number at epoch: 62712

The dashed part of the orbit path shows where the satellite is in the earth's shadow,  

DLR